GUARANISAT-1 (47931 NORAD) Tracking and Keplerian Element Data

This shows tracking and keplerian element data for the satellite.

Feedback or suggestion? Click here.




ElementValue
Catalog47931
NameGUARANISAT-1
Epoch Orbit7419
Epoch Day183.33128911
Epoch Year2022
RAAN220.7948
Inclination51.6168
Eccentricity0.000886
Argument of Perigee356.3222
Mean Anonmoly3.7729
Mean Motion16.18652894
Decay Rate0.01694752
L11 47931U 98067SH 22183.33128911 .01694752 11832-4 93763-3 0 9992
L22 47931 51.6168 220.7948 0008860 356.3222 3.7729 16.18652894 74199



Live tracking and technical data element details for GUARANISAT-1 (NORAD 47931). GUARANISAT-1 can be tracked NOW for your location showing map with azimuth and elevation plus other details from your city location.







IsCatalogInMostPopularTable: catalog: 47931, numindb: 141
Update: records affected: 1



GetName: 47931 GUARANISAT-1

Hit Count: updated at: Thu, 23 Jan 2025 17:42:45 GMT